Sioux Falls, SD

9:01 PM CDT on July 25, 2017 (GMT -0500)
Foss

Weather History for KFSD - September, 2013

Change the Weather History Date:

Monday, September 23, 2013

  Actual Average Record
Temperature  
Mean Temperature 68 °F 58 °F  
Max Temperature 78 °F 70 °F 92 °F (1935)
Min Temperature 57 °F 46 °F 27 °F (1989)
Degree Days  
Heating Degree Days 0 8  
Month to date heating degree days 54 106  
Since 1 July heating degree days 88 137  
Cooling Degree Days 3 1  
Month to date cooling degree days 109 56  
Year to date cooling degree days 763 681  
Growing Degree Days 18 (Base 50)    
Moisture  
Dew Point 49 °F    
Average Humidity 52    
Maximum Humidity 72    
Minimum Humidity 32    
Precipitation  
Precipitation 0.00 in 0.09 in 1.42 in (2010)
Month to date precipitation 0.29 2.16  
Year to date precipitation 20.71 21.55  
Snow  
Snow 0.00 in 0.00 in 0.00 in ()
Month to date snowfall 0.0 0.0  
Since 1 July snowfall 0.0 0.0  
Since 1 September snowfall 0.0 0.0  
Snow Depth 0.00 in    
Sea Level Pressure  
Sea Level Pressure 29.75 in    
Wind  
Wind Speed 15 mph (SSE)    
Max Wind Speed 29 mph    
Max Gust Speed 37 mph    
Visibility 10 miles    
Events      
T = Trace of Precipitation, MM = Missing Value Source: NWS Daily Summary

Daily Weather History Graph

Daily Weather History Graph

Search for Another Location

Airport or City:

Trip Planner

Search our weather history database for the weather conditions in past years. The results will help you decide how hot, cold, wet, or windy it might be!

Date:

Astronomy

Sep. 23, 2013 Rise Set
Actual Time 7:15 AM CDT 7:21 PM CDT
Civil Twilight 6:47 AM CDT 7:50 PM CDT
Nautical Twilight 6:13 AM CDT 8:23 PM CDT
Astronomical Twilight 5:39 AM CDT 8:58 PM CDT
Moon 9:46 PM CDT (9/23) 11:44 AM CDT (9/23)
Length of Visible Light 13h 03m
Length of Day
12h 06m
Waning Gibbous, 81% of the Moon is Illuminated
Sep 23
Waning Gibbous
Sep 26
Last Quarter
Oct 4
New
Oct 11
First Quarter
Oct 18
Full

Hourly Weather History & Observations

Time (CDT) Temp. Dew Point Humidity Pressure Visibility Wind Dir Wind Speed Gust Speed Precip Events Conditions
12:56 AM 64.0 °F 50.0 °F 60% 29.75 in 10.0 mi South 18.4 mph 26.5 mph N/A   Clear
1:56 AM 63.0 °F 51.1 °F 65% 29.75 in 10.0 mi SSE 16.1 mph 23.0 mph N/A   Clear
2:56 AM 61.0 °F 50.0 °F 67% 29.74 in 10.0 mi SSE 16.1 mph 21.9 mph N/A   Clear
3:56 AM 60.1 °F 50.0 °F 69% 29.74 in 10.0 mi South 15.0 mph 23.0 mph N/A   Clear
4:56 AM 59.0 °F 48.9 °F 69% 29.73 in 10.0 mi SSE 12.7 mph - N/A   Scattered Clouds
5:56 AM 57.9 °F 48.9 °F 72% 29.74 in 10.0 mi SSE 10.4 mph 19.6 mph N/A   Mostly Cloudy
6:56 AM 57.0 °F 48.0 °F 72% 29.76 in 10.0 mi SSE 12.7 mph 20.7 mph N/A   Mostly Cloudy
7:56 AM 57.9 °F 48.0 °F 70% 29.76 in 10.0 mi SSE 13.8 mph - N/A   Mostly Cloudy
8:56 AM 59.0 °F 48.9 °F 69% 29.76 in 10.0 mi South 16.1 mph 27.6 mph N/A   Mostly Cloudy
9:56 AM 63.0 °F 50.0 °F 63% 29.76 in 10.0 mi South 23.0 mph 31.1 mph N/A   Mostly Cloudy
10:56 AM 66.9 °F 50.0 °F 54% 29.76 in 10.0 mi South 19.6 mph 27.6 mph N/A   Mostly Cloudy
11:56 AM 72.0 °F 51.1 °F 48% 29.75 in 10.0 mi South 16.1 mph 25.3 mph N/A   Scattered Clouds
12:56 PM 75.0 °F 48.9 °F 40% 29.73 in 10.0 mi SSE 19.6 mph 27.6 mph N/A   Mostly Cloudy
1:56 PM 75.9 °F 48.9 °F 38% 29.71 in 10.0 mi South 21.9 mph 31.1 mph N/A   Mostly Cloudy
2:56 PM 77.0 °F 48.9 °F 37% 29.71 in 10.0 mi South 21.9 mph 28.8 mph N/A   Partly Cloudy
3:56 PM 77.0 °F 46.9 °F 34% 29.72 in 10.0 mi SSE 21.9 mph 33.4 mph N/A   Partly Cloudy
4:56 PM 78.1 °F 46.9 °F 33% 29.72 in 10.0 mi SSE 17.3 mph - N/A   Partly Cloudy
5:56 PM 75.9 °F 46.9 °F 36% 29.73 in 10.0 mi SSE 15.0 mph 24.2 mph N/A   Scattered Clouds
6:56 PM 72.0 °F 48.0 °F 43% 29.76 in 10.0 mi SSE 12.7 mph 21.9 mph N/A   Scattered Clouds
7:56 PM 70.0 °F 48.9 °F 47% 29.76 in 10.0 mi SE 10.4 mph - N/A   Mostly Cloudy
8:56 PM 70.0 °F 48.9 °F 47% 29.76 in 10.0 mi SE 11.5 mph - N/A   Overcast
9:56 PM 66.9 °F 48.9 °F 52% 29.80 in 10.0 mi SE 13.8 mph - N/A   Overcast
10:56 PM 66.0 °F 48.9 °F 54% 29.82 in 10.0 mi SE 9.2 mph - N/A   Overcast
11:56 PM 64.9 °F 48.9 °F 56% 29.81 in 10.0 mi SE 8.1 mph - N/A   Overcast